Location: WHS+Essen
(51.3947°N, 6.9794°E)
Time: 00:55:31
(UTC+02:00)

ISS - Pass Details

Date: 26 March 2019
Orbit: 408 x 410 km, 51.6° (Epoch: 19 April)

Event Time Altitude Azimuth Distance (km) Brightness Sun altitude
Rises 20:58:21 0° 262° (W) 2,337 0.9 -19.1°
Reaches altitude 10° 21:00:27 10° 263° (W) 1,475 -0.3 -19.4°
Enters shadow 21:03:45 89° 325° (NW) 415 -3.9 -19.8°
